Flag for U.S.A. Weather past 2 weeks in Tempe, Arizona, U.S.A.

Now
89 °F

Passing clouds.


Feels Like: 85 °F
Forecast: 66 / 90 °F
Wind: 7 mph from West

Location: Phoenix Sky Harbor International Airport

Current Time: Oct 1, 2014 at 5:58:59 PM

Latest Report: Oct 1, 2014 at 4:51 PM


Visibility: 10 mi

Pressure: 29.71 "Hg

Humidity: 16%

Dew point: 38 °F

Location of TempeLocation

Historic Weather in Tempe — Graph

°F

Tempe temperature yesterday

Maximum temperature yesterday: 89 °F (at 2:51 PM)
Minimum temperature yesterday: 67 °F (at 6:51 AM)
Average temperature yesterday: 78 °F

Past Weeks' High & Low Weather Summary

 TemperatureHumidityPressure
High104 °F (Sep 24, 2:51 PM)93% (Sep 27, 4:51 PM)29.92 "Hg (Sep 27, 4:51 PM)
Low67 °F (Sep 29, 5:51 AM)13% (Sep 23, 5:51 PM)29.58 "Hg (Sep 27, 1:51 PM)
Average86 °F42%29.77 "Hg
* Reported Sep 16 4:51 PM — Oct 1 4:51 PM, Tempe, Weather by CustomWeather, © 2014

Note: Actual official high and low records may vary slightly from our data, if they occured in-between our weather recording intervals... More about our weather records

Advertising

Tempe weather history for previous 24 hours

 ConditionsComfort  
Time TempWeatherWind HumidityBarometerVisibility
4:51 PM
Oct 1
89 °FPassing clouds.7 mph16%29.71 "Hg10 mi
3:51 PM90 °FPassing clouds.9 mph17%29.70 "Hg10 mi
2:51 PM88 °FPassing clouds.3 mph16%29.71 "Hg10 mi
1:51 PM88 °FPassing clouds.No wind18%29.71 "Hg10 mi
12:51 PM87 °FPassing clouds.3 mph19%29.73 "Hg10 mi
11:51 AM85 °FPassing clouds.No wind23%29.75 "Hg10 mi
10:51 AM82 °FSunny.6 mph26%29.77 "Hg10 mi
9:51 AM79 °FSunny.10 mph31%29.78 "Hg10 mi
8:51 AM76 °FSunny.8 mph39%29.77 "Hg10 mi
7:51 AM71 °FSunny.5 mph51%29.76 "Hg10 mi
6:51 AM68 °FSunny.6 mph57%29.75 "Hg10 mi
5:51 AM69 °FPassing clouds.13 mph51%29.72 "Hg10 mi
4:51 AM69 °FClear.7 mph53%29.72 "Hg10 mi
3:51 AM69 °FClear.7 mph55%29.70 "Hg10 mi
2:51 AM70 °FClear.9 mph51%29.69 "Hg10 mi
1:51 AM72 °FClear.8 mph48%29.70 "Hg10 mi
12:51 AM73 °FClear.7 mph48%29.70 "Hg10 mi
11:51 PM
Sep 30
74 °FClear.9 mph46%29.69 "Hg10 mi
10:51 PM76 °FClear.8 mph42%29.70 "Hg10 mi
9:51 PM79 °FClear.No wind36%29.70 "Hg10 mi
8:51 PM79 °FClear.No wind38%29.70 "Hg10 mi
7:51 PM82 °FClear.No wind28%29.70 "Hg10 mi
6:51 PM83 °FClear.3 mph26%29.70 "Hg10 mi
5:51 PM86 °FPassing clouds.7 mph17%29.70 "Hg10 mi
Weather by CustomWeather, © 2014

See weather overviewHow to use our weather pages